Zurück zum Katalog

HULIANWANG DIGUI-171

AktivWissenschaftLEO
NORAD 69574·PAYLOAD·🇨🇳 China

Gestartet Jun 17, 2026 von Wenchang Space Launch Site

Loading…

Nächste Überflüge (nächste 24 Stunden)

TLE

AktuellSource: Space-Track

Epoche: Sep 14, 2026, 02:02 UTC

1 69574U 26137C   26257.08490382 -.00000087  00000-0  80246-4 0  9996
2 69574  49.9966 277.1236 0000637 148.0296 212.0615 13.29328544 12157

Verfolge HULIANWANG DIGUI-171 in Echtzeit mit AllMySat

Download on the App Store